When you browse on this site, cookies collect data to enhance your experience and personalize the content and advertising you see.
Visit our Privacy Policy to learn more. By continuing to use the site, you agree to this use of cookies and data.
  • In United Kingdom
  • List of Countries
  • For 7 days
  • Water Temperature
  • Satellite Maps
  • Weather Map
  • Weather Widgets
  • user-avatar
    Login

    Hourly Weather Yangiyul

    Today, 20 June, Thursday

    Time Temperature Precipitation Wind Pressure Humidity
    00:00 +25°C° 0 mm 1 mps 726 mmHg 19%
    01:00 +24°C° 0 mm 1 mps 726 mmHg 21%
    02:00 +23°C° 0 mm 1 mps 725 mmHg 22%
    03:00 +23°C° 0 mm 1 mps 726 mmHg 23%
    04:00 +22°C° 0 mm 1 mps 726 mmHg 24%
    05:00 +22°C° 0 mm 1 mps 726 mmHg 25%
    06:00 +24°C° 0 mm 1 mps 726 mmHg 24%
    07:00 +26°C° 0 mm 1 mps 726 mmHg 24%
    08:00 +28°C° 0 mm 1 mps 727 mmHg 23%
    09:00 +30°C° 0 mm 1 mps 727 mmHg 21%
    10:00 +32°C° 0 mm 2 mps 727 mmHg 18%
    11:00 +35°C° 0 mm 2 mps 727 mmHg 14%
    12:00 +36°C° 0 mm 2 mps 726 mmHg 13%
    13:00 +36°C° 0 mm 2 mps 726 mmHg 12%
    14:00 +37°C° 0 mm 2 mps 726 mmHg 12%
    15:00 +37°C° 0 mm 2 mps 726 mmHg 12%
    16:00 +37°C° 0 mm 2 mps 725 mmHg 12%
    17:00 +37°C° 0 mm 2 mps 725 mmHg 12%
    18:00 +35°C° 0 mm 2 mps 725 mmHg 13%
    19:00 +32°C° 0 mm 2 mps 725 mmHg 15%
    20:00 +30°C° 0 mm 2 mps 726 mmHg 16%
    21:00 +29°C° 0 mm 2 mps 725 mmHg 17%
    22:00 +28°C° 0 mm 1 mps 725 mmHg 18%
    23:00 +27°C° 0 mm 1 mps 725 mmHg 18%

    Tomorrow, 21 June, Friday

    Time Temperature Precipitation Wind Pressure Humidity
    00:00 +26°C° 0 mm 1 mps 725 mmHg 19%
    01:00 +26°C° 0 mm 1 mps 725 mmHg 21%
    02:00 +25°C° 0 mm 1 mps 725 mmHg 22%
    03:00 +25°C° 0 mm 1 mps 725 mmHg 23%
    04:00 +24°C° 0 mm 1 mps 725 mmHg 24%
    05:00 +24°C° 0 mm 1 mps 725 mmHg 25%
    06:00 +26°C° 0 mm 1 mps 725 mmHg 24%
    07:00 +28°C° 0 mm 1 mps 725 mmHg 22%
    08:00 +30°C° 0 mm 2 mps 726 mmHg 20%
    09:00 +32°C° 0 mm 1 mps 726 mmHg 18%
    10:00 +34°C° 0 mm 1 mps 726 mmHg 16%
    11:00 +36°C° 0 mm 1 mps 726 mmHg 13%
    12:00 +37°C° 0 mm 1 mps 725 mmHg 13%
    13:00 +39°C° 0 mm 1 mps 725 mmHg 12%
    14:00 +40°C° 0 mm 1 mps 725 mmHg 12%
    15:00 +40°C° 0 mm 2 mps 725 mmHg 12%
    16:00 +40°C° 0 mm 3 mps 725 mmHg 12%
    17:00 +41°C° 0 mm 4 mps 725 mmHg 11%
    18:00 +37°C° 0 mm 4 mps 725 mmHg 13%
    19:00 +35°C° 0 mm 3 mps 725 mmHg 14%
    20:00 +31°C° 0 mm 3 mps 725 mmHg 16%
    21:00 +30°C° 0 mm 3 mps 725 mmHg 16%
    22:00 +29°C° 0 mm 3 mps 725 mmHg 16%
    23:00 +28°C° 0 mm 3 mps 725 mmHg 17%

    Day after tomorrow, 22 June, Saturday

    Time Temperature Precipitation Wind Pressure Humidity
    00:00 +27°C° 0 mm 2 mps 725 mmHg 18%
    01:00 +26°C° 0 mm 2 mps 725 mmHg 19%
    02:00 +26°C° 0 mm 1 mps 725 mmHg 21%
    03:00 +25°C° 0 mm 1 mps 725 mmHg 22%
    04:00 +24°C° 0 mm 1 mps 725 mmHg 23%
    05:00 +24°C° 0 mm 1 mps 726 mmHg 24%
    06:00 +25°C° 0 mm 2 mps 726 mmHg 24%
    07:00 +27°C° 0 mm 2 mps 726 mmHg 23%
    08:00 +28°C° 0 mm 2 mps 727 mmHg 23%
    09:00 +31°C° 0 mm 2 mps 727 mmHg 20%
    10:00 +34°C° 0 mm 2 mps 727 mmHg 18%
    11:00 +36°C° 0 mm 2 mps 727 mmHg 16%
    12:00 +37°C° 0 mm 2 mps 727 mmHg 14%
    13:00 +38°C° 0 mm 3 mps 727 mmHg 13%
    14:00 +39°C° 0 mm 3 mps 727 mmHg 11%
    15:00 +40°C° 0 mm 4 mps 727 mmHg 12%
    16:00 +40°C° 0 mm 5 mps 727 mmHg 12%
    17:00 +40°C° 0 mm 5 mps 727 mmHg 12%
    18:00 +37°C° 0 mm 5 mps 727 mmHg 15%
    19:00 +35°C° 0 mm 5 mps 727 mmHg 17%
    20:00 +33°C° 0 mm 5 mps 727 mmHg 19%
    21:00 +32°C° 0 mm 5 mps 727 mmHg 20%
    22:00 +30°C° 0 mm 5 mps 727 mmHg 20%
    23:00 +29°C° 0 mm 5 mps 728 mmHg 20%

    23 June, Sunday

    Time Temperature Precipitation Wind Pressure Humidity
    00:00 +28°C° 0 mm 4 mps 727 mmHg 22%
    01:00 +27°C° 0 mm 4 mps 727 mmHg 23%
    02:00 +26°C° 0 mm 3 mps 727 mmHg 25%
    03:00 +25°C° 0 mm 3 mps 727 mmHg 26%
    04:00 +24°C° 0 mm 3 mps 727 mmHg 27%
    05:00 +23°C° 0 mm 2 mps 727 mmHg 29%
    06:00 +25°C° 0 mm 2 mps 727 mmHg 28%
    07:00 +27°C° 0 mm 2 mps 728 mmHg 27%
    08:00 +28°C° 0 mm 2 mps 728 mmHg 26%
    09:00 +30°C° 0 mm 2 mps 728 mmHg 23%
    10:00 +32°C° 0 mm 2 mps 728 mmHg 21%
    11:00 +35°C° 0 mm 3 mps 728 mmHg 19%
    12:00 +36°C° 0 mm 2 mps 728 mmHg 17%
    13:00 +37°C° 0 mm 2 mps 728 mmHg 15%
    14:00 +37°C° 0 mm 1 mps 728 mmHg 14%
    15:00 +37°C° 0 mm 1 mps 728 mmHg 14%
    16:00 +39°C° 0 mm 1 mps 728 mmHg 13%
    17:00 +39°C° 0 mm 1 mps 728 mmHg 13%
    18:00 +37°C° 0 mm 2 mps 728 mmHg 16%
    19:00 +35°C° 0 mm 3 mps 728 mmHg 18%
    20:00 +33°C° 0 mm 3 mps 728 mmHg 21%
    21:00 +31°C° 0 mm 3 mps 728 mmHg 22%
    22:00 +29°C° 0 mm 3 mps 728 mmHg 23%
    23:00 +28°C° 0 mm 2 mps 728 mmHg 24%

    24 June, Monday

    Time Temperature Precipitation Wind Pressure Humidity
    00:00 +27°C° 0 mm 2 mps 728 mmHg 26%
    01:00 +26°C° 0 mm 2 mps 728 mmHg 29%
    02:00 +25°C° 0 mm 1 mps 728 mmHg 31%
    03:00 +25°C° 0 mm 1 mps 728 mmHg 33%
    04:00 +24°C° 0 mm 2 mps 728 mmHg 35%
    05:00 +24°C° 0 mm 2 mps 728 mmHg 37%
    06:00 +25°C° 0 mm 2 mps 728 mmHg 33%
    07:00 +27°C° 0 mm 3 mps 728 mmHg 29%
    08:00 +28°C° 0 mm 3 mps 728 mmHg 25%
    09:00 +30°C° 0 mm 3 mps 728 mmHg 24%
    10:00 +33°C° 0 mm 3 mps 728 mmHg 23%
    11:00 +35°C° 0 mm 3 mps 728 mmHg 22%
    12:00 +36°C° 0 mm 3 mps 728 mmHg 20%
    13:00 +37°C° 0 mm 2 mps 727 mmHg 19%
    14:00 +39°C° 0 mm 2 mps 727 mmHg 18%
    15:00 +39°C° 0 mm 2 mps 727 mmHg 17%
    16:00 +39°C° 0 mm 2 mps 727 mmHg 16%
    17:00 +39°C° 0 mm 2 mps 727 mmHg 15%
    18:00 +37°C° 0 mm 2 mps 727 mmHg 18%
    19:00 +35°C° 0 mm 2 mps 727 mmHg 21%
    20:00 +33°C° 0 mm 3 mps 727 mmHg 24%
    21:00 +30°C° 0 mm 3 mps 727 mmHg 26%
    22:00 +29°C° 0 mm 2 mps 727 mmHg 29%
    23:00 +27°C° 0 mm 2 mps 727 mmHg 32%

    25 June, Tuesday

    Time Temperature Precipitation Wind Pressure Humidity
    00:00 +27°C° 0 mm 2 mps 726 mmHg 32%
    01:00 +27°C° 0 mm 2 mps 726 mmHg 32%
    02:00 +26°C° 0 mm 2 mps 726 mmHg 32%
    03:00 +26°C° 0 mm 2 mps 726 mmHg 33%
    04:00 +25°C° 0 mm 1 mps 726 mmHg 33%
    05:00 +24°C° 0 mm 1 mps 726 mmHg 33%
    06:00 +26°C° 0 mm 1 mps 726 mmHg 31%
    07:00 +28°C° 0 mm 2 mps 726 mmHg 29%
    08:00 +30°C° 0 mm 2 mps 727 mmHg 27%
    09:00 +31°C° 0 mm 2 mps 727 mmHg 25%
    10:00 +34°C° 0 mm 3 mps 727 mmHg 23%
    11:00 +36°C° 0 mm 3 mps 727 mmHg 20%
    12:00 +37°C° 0 mm 3 mps 726 mmHg 18%
    13:00 +39°C° 0 mm 3 mps 726 mmHg 16%
    14:00 +40°C° 0 mm 3 mps 726 mmHg 13%
    15:00 +40°C° 0 mm 3 mps 726 mmHg 13%
    16:00 +40°C° 0 mm 2 mps 726 mmHg 12%
    17:00 +40°C° 0 mm 2 mps 726 mmHg 12%
    18:00 +38°C° 0 mm 2 mps 725 mmHg 15%
    19:00 +36°C° 0 mm 3 mps 725 mmHg 17%
    20:00 +33°C° 0 mm 3 mps 725 mmHg 20%
    21:00 +31°C° 0 mm 2 mps 725 mmHg 21%
    22:00 +30°C° 0 mm 2 mps 725 mmHg 22%
    23:00 +29°C° 0 mm 2 mps 725 mmHg 24%
    Show more